[[{"header":{"parameterUnit":"m.s-1","parameterCategory":1,"la1":30.2991,"la2":30.254,"lo1":-89.0895,"lo2":-89.0444,"dy":0.0017,"dx":0.0017,"nx":28,"ny":28,"refTime":"2026-02-26T03:00:00:Z","depth":0,"parameterNumber":2,"parameterNumberName":"U-component_of_WINDS"},"data":[0,0,0,0,0,0,0,0,0,0,0,0,0,0,0,0,0,0,0,0,0,0,0,0,0,0,0,0,0,0,0,0,0,0,0,0,0,0,0,0,0,0,0,0,0,0,0,0,0,0,0,0,0,0,0,0,0,0,1.7669,1.7671,0,1.7786,1.7787,1.7789,1.7795,1.7793,1.7792,1.7791,1.7915,1.7919,1.7924,0,0,0,0,0,0,0,0,0,0,0,0,0,1.7454,1.7458,1.7669,1.7671,1.7672,1.7786,1.7788,1.7789,1.7795,1.7793,1.7792,1.779,1.7913,1.7919,1.7924,0,0,0,0,0,0,0,0,0,0,0,0,0,1.7557,1.746,1.7669,1.7689,1.7692,1.7786,1.7788,1.779,1.7795,1.7793,1.7791,1.7789,1.7911,1.7918,1.7925,1.8008,0,0,1.7946,1.7949,0,0,0,0,0,0,0,0,1.7551,1.7565,1.7684,1.7687,1.7691,1.7774,1.7757,1.7863,1.7796,1.7756,1.7791,1.7788,1.787,1.788,1.7907,1.8014,1.802,1.7946,1.7951,1.7954,1.7956,0,0,0,0,0,0,0,1.7544,1.756,1.7716,1.7686,1.769,1.7693,1.7705,1.7777,1.7823,1.7759,1.776,1.7774,1.7871,1.79,1.7909,1.8021,1.7946,1.7952,1.7957,1.7959,1.8203,1.8205,0,0,0,0,0,0,1.7533,1.7554,1.7712,1.7719,1.7614,1.7698,1.7712,1.7749,1.7822,1.7831,1.7775,1.7774,1.7889,1.7901,1.7914,1.8016,1.7954,1.796,1.7964,1.8201,1.8204,1.8206,0,0,0,0,0,0,1.7528,1.7547,1.7707,1.7637,1.7657,1.7704,1.7746,1.7753,1.7781,1.7834,1.7843,1.7796,1.7888,1.7904,1.7984,1.8021,1.7963,1.7969,1.8198,1.8202,1.8205,1.8222,0,0,0,0,0,0,1.7522,1.7545,1.7577,1.7637,1.7661,1.7775,1.7748,1.7756,1.7793,1.7791,1.7856,1.7865,1.7888,1.7974,1.7991,1.8029,1.7975,1.8195,1.82,1.8204,1.8219,1.8226,1.8232,0,0,0,0,0,1.7514,1.7578,1.7578,1.7597,1.7701,1.7777,1.7791,1.7815,1.7795,1.7828,1.7862,1.7863,1.8014,1.7982,1.8002,1.8042,1.8193,1.8198,1.8203,1.8216,1.8224,1.8232,0,0,0,0,0,0,1.7522,1.7586,1.7587,1.7672,1.7719,1.7778,1.782,1.7823,1.7877,1.7874,1.7903,1.7917,1.7997,1.8027,1.7991,1.8127,1.8101,1.8111,1.8104,1.8113,1.8119,1.8111,1.798,0,0,0,0,0,1.7533,1.7588,1.7642,1.7711,1.7735,1.7773,1.7807,1.7821,1.7871,1.7891,1.7931,1.7981,1.8039,1.8078,1.8135,1.8223,1.8237,1.826,1.8267,1.8272,1.828,1.8329,1.834,1.8224,1.8224,1.8223,0,0,1.7558,1.7599,1.7633,1.7714,1.7752,1.7809,1.779,1.7851,1.7894,1.7901,1.7979,1.801,1.8067,1.8152,1.8191,1.818,1.8315,1.8279,1.8282,1.8288,1.8336,1.8347,1.8356,1.8227,1.8227,1.8226,0,0,1.7631,1.7668,1.773,1.7768,1.7825,1.785,1.7865,1.7923,1.7943,1.8021,1.8027,1.8079,1.818,1.822,1.8254,1.8341,1.8344,1.8359,1.8395,1.8442,1.8452,1.846,1.8492,1.8503,1.8367,1.8367,1.8367,0,1.7655,1.774,1.7762,1.7823,1.7859,1.7866,1.7929,1.7966,1.8039,1.8064,1.8049,1.8175,1.8214,1.8308,1.8329,1.8356,1.8374,1.8353,1.8448,1.8457,1.8465,1.8496,1.8507,1.8369,1.8368,1.8368,1.8368,0,1.7767,1.7826,1.7869,1.7938,1.7979,1.8041,1.8073,1.8111,1.8121,1.8148,1.8228,1.8274,1.8341,1.8364,1.8375,1.8459,1.8451,1.8442,1.8417,1.8477,1.8506,1.8518,1.8371,1.837,1.837,1.8369,0,0,1.785,1.7929,1.7945,1.7976,1.8038,1.8085,1.8147,1.821,1.8243,1.8293,1.8347,1.8431,1.8423,1.8461,1.8477,1.8518,1.8585,1.8504,1.8506,1.8518,1.8681,1.8688,1.8701,1.8586,1.8588,1.859,1.8676,0,1.7932,1.8042,1.8062,1.8159,1.8214,1.822,1.8275,1.8319,1.8346,1.8397,1.8426,1.8485,1.847,1.8493,1.8534,1.8568,1.8618,1.8562,1.8638,1.864,1.8624,1.8716,1.8724,1.8803,1.8688,1.869,1.8691,0,1.8042,1.8092,1.8193,1.8248,1.8272,1.832,1.838,1.8428,1.8479,1.8495,1.8537,1.8548,1.8614,1.8584,1.8676,1.8637,1.8669,1.869,1.8694,1.8703,1.867,1.8729,1.8828,1.8841,1.8709,1.8708,1.8707,0,1.8093,1.8187,1.8259,1.8286,1.8351,1.8385,1.8414,1.8462,1.8499,1.8551,1.8575,1.8635,1.8668,1.8714,1.874,1.8717,1.883,1.8803,1.8847,1.8846,1.8872,1.887,1.8979,1.889,1.889,1.889,1.889,0,1.8182,1.8244,1.8283,1.8328,1.8397,1.8421,1.8489,1.8518,1.8561,1.8612,1.8622,1.867,1.8701,1.8754,1.8776,1.8848,1.8863,1.8879,1.8884,1.8879,1.8877,1.8901,1.8897,1.8893,1.8892,1.8892,1.8891,0,1.8252,1.828,1.836,1.8415,1.843,1.8479,1.8526,1.857,1.8595,1.866,1.8677,1.8717,1.878,1.881,1.8888,1.8903,1.8985,1.8986,1.8968,1.897,1.9012,1.9008,1.9141,1.916,1.9058,1.9059,1.906,0,1.8307,1.8355,1.8414,1.8448,1.8477,1.8533,1.8569,1.8594,1.8632,1.8693,1.873,1.8792,1.8844,1.8943,1.8981,1.904,1.9044,1.9086,1.9053,1.9046,1.9045,1.9043,1.9048,1.9093,1.9094,1.9095,1.9095,0,1.8403,1.8414,1.8466,1.8523,1.8566,1.8613,1.8658,1.8686,1.8718,1.8761,1.8824,1.8864,1.8942,1.9005,1.9066,1.9097,1.9102,1.9105,1.9118,1.9114,1.9101,1.9109,1.8985,1.9102,1.9102,1.9101,1.9101,1.91,1.8468,1.851,1.8558,1.8616,1.8652,1.8694,1.8738,1.8769,1.8821,1.8886,1.8898,1.8965,1.9014,1.9098,1.9131,1.9184,1.9175,1.9194,1.9199,1.9204,1.9206,1.9091,1.9196,1.9195,1.9195,1.9195,1.9195,0,1.8565,1.8595,1.8648,1.8711,1.8756,1.8754,1.8804,1.8843,1.8901,1.8946,1.8996,1.9069,1.9129,1.917,1.9231,1.9266,1.927,1.9281,1.928,1.9287,1.9211,1.9193,1.9277,1.9277,1.9277,1.9277,1.9277,1.9277,1.862,1.8692,1.8709,1.8799,1.883,1.8894,1.8923,1.8962,1.8998,1.9078,1.9128,1.9153,1.9197,1.9261,1.9316,1.9327,1.935,1.9362,1.9372,1.9301,1.9292,1.9284,1.9268,1.9366,1.9366,1.9444,1.9445,1.9445]},{"header":{"parameterUnit":"m.s-1","parameterCategory":1,"la1":30.2991,"la2":30.254,"lo1":-89.0895,"lo2":-89.0444,"dy":0.0017,"dx":0.0017,"nx":28,"ny":28,"refTime":"2026-02-26T03:00:00:Z","depth":0,"parameterNumber":3,"parameterNumberName":"V-component_of_WINDS"},"data":[0,0,0,0,0,0,0,0,0,0,0,0,0,0,0,0,0,0,0,0,0,0,0,0,0,0,0,0,0,0,0,0,0,0,0,0,0,0,0,0,0,0,0,0,0,0,0,0,0,0,0,0,0,0,0,0,0,0,4.5806,4.5807,0,4.5928,4.5929,4.5931,4.5917,4.5915,4.5913,4.5911,4.6033,4.6038,4.6043,0,0,0,0,0,0,0,0,0,0,0,0,0,4.5557,4.5561,4.5805,4.5807,4.5809,4.5928,4.5929,4.5931,4.5917,4.5915,4.5912,4.591,4.6031,4.6037,4.6043,0,0,0,0,0,0,0,0,0,0,0,0,0,4.567,4.5563,4.5805,4.5816,4.5818,4.5927,4.5929,4.5932,4.5918,4.5915,4.5912,4.5909,4.6029,4.6037,4.6044,4.6149,0,0,4.6067,4.6071,0,0,0,0,0,0,0,0,4.5664,4.5679,4.5813,4.5815,4.5818,4.5904,4.5886,4.6004,4.5918,4.588,4.5911,4.5908,4.5992,4.6003,4.6032,4.6155,4.616,4.6068,4.6073,4.6076,4.6078,0,0,0,0,0,0,0,4.5656,4.5674,4.5854,4.5815,4.5818,4.5814,4.5827,4.5909,4.5951,4.5883,4.5882,4.5897,4.5993,4.6025,4.6035,4.6162,4.6068,4.6074,4.6079,4.6082,4.6379,4.6382,0,0,0,0,0,0,4.5646,4.5668,4.585,4.5858,4.5732,4.5821,4.5835,4.5879,4.595,4.5958,4.5899,4.5896,4.6013,4.6026,4.6039,4.6168,4.6076,4.6083,4.6087,4.6375,4.6379,4.6383,0,0,0,0,0,0,4.5641,4.5662,4.5845,4.5763,4.5785,4.5828,4.5878,4.5883,4.5915,4.5962,4.5969,4.5924,4.6011,4.6028,4.6123,4.6172,4.6086,4.6093,4.6371,4.6377,4.6381,4.6427,0,0,0,0,0,0,4.5634,4.5661,4.5702,4.5764,4.579,4.5928,4.5881,4.5888,4.5929,4.5925,4.5988,4.5995,4.601,4.6111,4.613,4.6181,4.6099,4.6367,4.6374,4.638,4.6421,4.6433,4.6443,0,0,0,0,0,4.5625,4.5709,4.5704,4.5726,4.5843,4.5931,4.5946,4.5963,4.5933,4.5974,4.6005,4.5993,4.6163,4.6121,4.6142,4.6196,4.6364,4.6372,4.6379,4.6417,4.6431,4.6443,0,0,0,0,0,0,4.5651,4.5717,4.5713,4.5819,4.587,4.5928,4.5981,4.5977,4.6036,4.603,4.6047,4.6061,4.6157,4.6185,4.6137,4.6302,4.626,4.6272,4.6281,4.6295,4.6305,4.6297,4.6105,0,0,0,0,0,4.5669,4.5736,4.579,4.5879,4.5905,4.5939,4.5978,4.5986,4.6039,4.606,4.6097,4.6147,4.6212,4.6254,4.6316,4.6424,4.6438,4.6472,4.6483,4.6491,4.6502,4.6563,4.6579,4.6408,4.6407,4.6407,0,0,4.5707,4.5752,4.5793,4.5885,4.5925,4.5994,4.5957,4.603,4.6082,4.607,4.6163,4.6192,4.6249,4.6351,4.6397,4.6377,4.6552,4.6501,4.6507,4.6514,4.6572,4.6588,4.6603,4.6413,4.6412,4.6411,0,0,4.5813,4.5853,4.5932,4.5973,4.6035,4.6057,4.6076,4.6135,4.6155,4.6248,4.6241,4.6301,4.6412,4.6454,4.6489,4.661,4.6602,4.6629,4.6687,4.6746,4.6759,4.6771,4.6816,4.6832,4.664,4.664,4.664,0,4.5853,4.5957,4.5973,4.6049,4.609,4.6084,4.6164,4.6203,4.6281,4.6309,4.6285,4.6425,4.6463,4.6576,4.6605,4.6633,4.6656,4.6624,4.6756,4.6768,4.678,4.6823,4.6839,4.6643,4.6643,4.6642,4.6642,0,4.6004,4.6076,4.6132,4.621,4.6257,4.6334,4.6362,4.6407,4.6411,4.6435,4.653,4.6575,4.6647,4.6673,4.6677,4.6787,4.6773,4.6752,4.671,4.6799,4.684,4.6856,4.6647,4.6646,4.6645,4.6645,0,0,4.6131,4.6216,4.6237,4.6273,4.634,4.6396,4.6472,4.6544,4.6583,4.6636,4.6702,4.6796,4.6778,4.6818,4.6826,4.6877,4.6972,4.6851,4.6852,4.6874,4.7097,4.7114,4.7133,4.6966,4.6969,4.6972,4.7093,0,4.6244,4.6383,4.6399,4.6521,4.6589,4.6584,4.665,4.6698,4.6723,4.6782,4.6808,4.6876,4.6846,4.687,4.692,4.695,4.7018,4.6941,4.7028,4.7031,4.7016,4.7154,4.7172,4.7284,4.7109,4.7111,4.7113,0,4.6396,4.6456,4.6586,4.6645,4.6674,4.6734,4.6801,4.6858,4.6912,4.6926,4.6972,4.6973,4.7052,4.7005,4.7113,4.7061,4.7097,4.7116,4.7121,4.7132,4.7079,4.717,4.732,4.7338,4.7138,4.7136,4.7134,0,4.6479,4.6591,4.6684,4.6714,4.6784,4.6827,4.6858,4.6909,4.6951,4.7009,4.7037,4.7102,4.7139,4.7189,4.7208,4.7172,4.7316,4.727,4.7331,4.733,4.7363,4.7362,4.7523,4.7382,4.7382,4.7382,4.7381,0,4.6606,4.6686,4.6722,4.6779,4.6869,4.6886,4.6974,4.7002,4.7048,4.711,4.7108,4.7166,4.7186,4.7248,4.7262,4.7351,4.7367,4.738,4.7384,4.7382,4.7381,4.7408,4.7401,4.7386,4.7385,4.7384,4.7384,0,4.6714,4.6741,4.6842,4.6901,4.6917,4.6981,4.7031,4.7086,4.7108,4.7187,4.7206,4.7243,4.7315,4.7338,4.7424,4.7434,4.7538,4.7534,4.7521,4.7522,4.7582,4.7577,4.7769,4.7796,4.7635,4.7636,4.7637,0,4.6795,4.6856,4.6922,4.6964,4.6998,4.7065,4.7109,4.7127,4.7173,4.7239,4.7286,4.7357,4.7416,4.7531,4.7564,4.763,4.7629,4.7691,4.7639,4.7636,4.7632,4.763,4.7637,4.7702,4.7704,4.7705,4.7706,0,4.6935,4.6946,4.701,4.7079,4.7131,4.7185,4.7238,4.7272,4.7298,4.7349,4.7424,4.7469,4.7558,4.763,4.7697,4.7727,4.7722,4.7722,4.774,4.774,4.7732,4.7739,4.7551,4.7718,4.7717,4.7716,4.7715,4.7715,4.7034,4.7089,4.7145,4.7216,4.7257,4.7307,4.7362,4.7392,4.7455,4.7531,4.7537,4.7618,4.7669,4.776,4.7793,4.7856,4.7838,4.7864,4.7871,4.7877,4.7883,4.7719,4.7868,4.7868,4.7867,4.7867,4.7867,0,4.7176,4.7212,4.7277,4.7352,4.7408,4.7398,4.7455,4.7503,4.7574,4.7624,4.7682,4.7768,4.7837,4.7875,4.7944,4.7987,4.7986,4.8005,4.8003,4.8011,4.7894,4.7873,4.8004,4.8004,4.8004,4.8004,4.8004,4.8004,4.7258,4.7351,4.7368,4.7482,4.7517,4.7597,4.7632,4.7677,4.7717,4.7813,4.7872,4.7897,4.7942,4.8014,4.8077,4.8086,4.8113,4.8134,4.8141,4.8032,4.8018,4.8005,4.7986,4.8138,4.8139,4.8253,4.8254,4.8255]}]]